Total_Precipitation_Accumulation
0.62 0.52 0.58 0.55 0.44 0.52 0.75 0.62 0.52 0.36 0.34 0.37 0.36 0.38 0.38 0.33 0.29 0.25 0.22 0.22 0.20 0.19 0.20 0.22 0.23 0.29 0.35 0.42 0.47 0.52 0.53 0.51 0.51 0.52 0.53 0.54 0.54 0.53 0.53 0.54 0.55 0.56 0.55 0.55
0.65 0.38 0.39 0.41 0.32 0.38 0.47 0.39 0.34 0.27 0.31 0.27 0.27 0.31 0.32 0.26 0.20 0.16 0.16 0.15 0.13 0.12 0.13 0.16 0.17 0.20 0.25 0.32 0.39 0.43 0.47 0.47 0.48 0.47 0.46 0.46 0.46 0.46 0.45 0.45 0.47 0.50 0.53 0.57
0.71 0.37 0.40 0.41 0.30 0.32 0.37 0.30 0.27 0.29 0.25 0.18 0.21 0.27 0.32 0.25 0.17 0.13 0.12 0.11 0.10 0.11 0.11 0.11 0.12 0.18 0.24 0.28 0.29 0.32 0.36 0.37 0.37 0.38 0.41 0.41 0.42 0.46 0.52 0.56 0.57 0.60 0.65 0.68
0.69 0.54 0.61 0.40 0.24 0.23 0.26 0.23 0.19 0.19 0.13 0.12 0.17 0.19 0.20 0.20 0.18 0.13 0.08 0.06 0.06 0.07 0.07 0.08 0.10 0.14 0.22 0.29 0.32 0.36 0.40 0.39 0.37 0.37 0.43 0.48 0.54 0.60 0.69 0.77 0.80 0.83 0.87 0.88
0.58 0.45 0.30 0.18 0.14 0.16 0.20 0.19 0.13 0.12 0.10 0.08 0.09 0.16 0.18 0.16 0.17 0.14 0.08 0.05 0.05 0.05 0.06 0.08 0.10 0.12 0.17 0.26 0.34 0.39 0.44 0.48 0.49 0.52 0.59 0.64 0.73 0.82 0.85 0.91 0.92 0.89 0.85 0.83
0.50 0.37 0.18 0.11 0.06 0.06 0.11 0.17 0.09 0.07 0.07 0.06 0.07 0.13 0.16 0.17 0.20 0.20 0.16 0.10 0.07 0.07 0.08 0.11 0.14 0.17 0.24 0.32 0.41 0.48 0.53 0.59 0.61 0.63 0.67 0.69 0.70 0.73 0.73 0.73 0.70 0.64 0.61 0.57
0.40 0.34 0.11 0.05 0.03 0.04 0.12 0.15 0.07 0.08 0.08 0.07 0.08 0.08 0.09 0.12 0.17 0.20 0.21 0.20 0.18 0.18 0.19 0.22 0.26 0.33 0.41 0.48 0.57 0.62 0.63 0.66 0.68 0.65 0.64 0.60 0.53 0.47 0.45 0.43 0.39 0.34 0.32 0.30
0.23 0.34 0.17 0.05 0.04 0.08 0.10 0.06 0.05 0.05 0.06 0.07 0.06 0.05 0.05 0.07 0.10 0.13 0.16 0.21 0.25 0.28 0.29 0.30 0.36 0.44 0.51 0.56 0.58 0.55 0.49 0.46 0.43 0.38 0.35 0.32 0.28 0.26 0.25 0.24 0.24 0.22 0.20 0.18
0.17 0.18 0.11 0.07 0.05 0.05 0.04 0.06 0.05 0.05 0.05 0.06 0.06 0.07 0.06 0.05 0.06 0.07 0.08 0.09 0.13 0.18 0.22 0.22 0.23 0.26 0.29 0.28 0.25 0.23 0.20 0.18 0.18 0.17 0.17 0.17 0.16 0.15 0.15 0.16 0.17 0.16 0.16 0.16
0.16 0.14 0.10 0.08 0.05 0.05 0.05 0.05 0.05 0.04 0.04 0.04 0.05 0.05 0.06 0.06 0.06 0.06 0.07 0.07 0.07 0.07 0.08 0.08 0.07 0.07 0.07 0.07 0.07 0.08 0.08 0.09 0.10 0.11 0.12 0.13 0.12 0.12 0.12 0.13 0.15 0.16 0.17 0.17
0.16 0.12 0.09 0.08 0.05 0.06 0.06 0.05 0.05 0.05 0.05 0.05 0.05 0.05 0.05 0.05 0.05 0.06 0.06 0.07 0.07 0.08 0.08 0.08 0.08 0.08 0.08 0.07 0.07 0.07 0.08 0.10 0.11 0.12 0.14 0.15 0.15 0.15 0.17 0.18 0.20 0.22 0.21 0.22
0.16 0.10 0.09 0.08 0.04 0.04 0.05 0.04 0.04 0.05 0.06 0.05 0.05 0.06 0.06 0.06 0.05 0.05 0.05 0.06 0.07 0.08 0.10 0.10 0.09 0.08 0.09 0.09 0.10 0.10 0.10 0.11 0.11 0.13 0.14 0.16 0.16 0.17 0.19 0.21 0.22 0.24 0.24 0.25
0.07 0.04 0.04 0.04 0.03 0.03 0.04 0.05 0.05 0.05 0.06 0.06 0.06 0.06 0.05 0.05 0.05 0.05 0.05 0.05 0.06 0.07 0.08 0.09 0.09 0.10 0.11 0.11 0.11 0.12 0.13 0.14 0.15 0.16 0.17 0.18 0.19 0.20 0.21 0.24 0.27 0.27 0.26 0.26
0.04 0.04 0.06 0.05 0.05 0.04 0.04 0.05 0.05 0.06 0.06 0.05 0.05 0.04 0.05 0.05 0.04 0.05 0.06 0.07 0.07 0.07 0.08 0.08 0.08 0.09 0.11 0.11 0.11 0.12 0.14 0.16 0.17 0.17 0.18 0.20 0.22 0.22 0.23 0.24 0.24 0.23 0.25 0.30
0.06 0.06 0.07 0.07 0.06 0.05 0.04 0.04 0.04 0.04 0.04 0.03 0.04 0.05 0.05 0.06 0.06 0.06 0.06 0.07 0.07 0.08 0.08 0.08 0.08 0.08 0.09 0.10 0.11 0.12 0.13 0.15 0.17 0.17 0.19 0.21 0.23 0.24 0.24 0.24 0.25 0.24 0.25 0.29
0.07 0.07 0.08 0.08 0.08 0.07 0.05 0.05 0.06 0.06 0.05 0.06 0.06 0.07 0.08 0.08 0.07 0.07 0.07 0.07 0.08 0.08 0.08 0.09 0.09 0.08 0.08 0.09 0.11 0.12 0.14 0.19 0.22 0.22 0.22 0.22 0.23 0.25 0.26 0.26 0.26 0.26 0.25 0.27
0.13 0.12 0.10 0.11 0.11 0.10 0.10 0.10 0.10 0.10 0.09 0.08 0.07 0.07 0.07 0.07 0.07 0.07 0.06 0.06 0.06 0.07 0.07 0.08 0.09 0.09 0.09 0.10 0.12 0.14 0.16 0.20 0.25 0.23 0.21 0.22 0.24 0.27 0.29 0.30 0.30 0.27 0.24 0.28
0.14 0.14 0.13 0.13 0.13 0.13 0.13 0.12 0.11 0.10 0.09 0.08 0.07 0.07 0.07 0.07 0.07 0.07 0.07 0.07 0.07 0.07 0.08 0.08 0.09 0.09 0.10 0.12 0.14 0.16 0.18 0.19 0.21 0.22 0.23 0.26 0.31 0.32 0.33 0.33 0.31 0.30 0.27 0.31
0.13 0.14 0.15 0.15 0.14 0.14 0.14 0.14 0.13 0.11 0.09 0.09 0.08 0.08 0.08 0.08 0.09 0.09 0.09 0.10 0.10 0.10 0.10 0.10 0.13 0.13 0.13 0.15 0.19 0.19 0.20 0.22 0.24 0.25 0.27 0.32 0.36 0.33 0.33 0.34 0.33 0.32 0.32 0.34
0.15 0.16 0.17 0.17 0.16 0.15 0.16 0.15 0.14 0.12 0.11 0.11 0.11 0.11 0.10 0.10 0.10 0.11 0.11 0.12 0.12 0.12 0.11 0.12 0.14 0.14 0.15 0.17 0.22 0.22 0.22 0.24 0.26 0.28 0.31 0.34 0.35 0.34 0.33 0.34 0.34 0.34 0.34 0.35
0.19 0.18 0.19 0.20 0.20 0.19 0.18 0.17 0.16 0.16 0.14 0.13 0.13 0.14 0.14 0.13 0.12 0.12 0.12 0.12 0.11 0.11 0.12 0.14 0.13 0.13 0.16 0.21 0.25 0.24 0.24 0.27 0.30 0.33 0.36 0.37 0.37 0.36 0.35 0.34 0.35 0.35 0.36 0.35
0.18 0.19 0.20 0.20 0.19 0.19 0.18 0.18 0.17 0.17 0.16 0.16 0.16 0.16 0.15 0.15 0.13 0.13 0.13 0.14 0.13 0.16 0.16 0.15 0.14 0.17 0.22 0.26 0.26 0.27 0.29 0.31 0.33 0.36 0.37 0.37 0.38 0.37 0.35 0.35 0.36 0.35 0.34 0.35
0.15 0.16 0.18 0.18 0.18 0.17 0.16 0.17 0.18 0.17 0.17 0.18 0.19 0.20 0.19 0.18 0.17 0.17 0.17 0.15 0.15 0.16 0.16 0.15 0.18 0.23 0.26 0.27 0.26 0.28 0.31 0.32 0.33 0.34 0.34 0.34 0.34 0.34 0.34 0.33 0.33 0.32 0.33 0.33
0.11 0.11 0.11 0.11 0.11 0.12 0.12 0.13 0.13 0.14 0.16 0.18 0.18 0.19 0.19 0.19 0.17 0.16 0.17 0.17 0.16 0.17 0.16 0.17 0.21 0.25 0.27 0.25 0.25 0.27 0.29 0.29 0.30 0.30 0.30 0.30 0.30 0.30 0.30 0.30 0.30 0.29 0.30 0.30
0.07 0.06 0.06 0.06 0.07 0.08 0.09 0.09 0.10 0.12 0.13 0.15 0.15 0.14 0.14 0.15 0.17 0.17 0.16 0.16 0.16 0.17 0.18 0.19 0.21 0.22 0.23 0.23 0.24 0.25 0.25 0.26 0.28 0.30 0.28 0.28 0.27 0.27 0.27 0.26 0.28 0.28 0.27 0.27
0.06 0.05 0.05 0.05 0.05 0.06 0.06 0.07 0.09 0.10 0.12 0.13 0.14 0.14 0.14 0.15 0.16 0.17 0.18 0.17 0.17 0.18 0.19 0.20 0.20 0.21 0.21 0.21 0.21 0.21 0.21 0.22 0.23 0.24 0.23 0.24 0.25 0.25 0.25 0.24 0.24 0.25 0.25 0.25
0.06 0.06 0.06 0.05 0.05 0.06 0.06 0.07 0.08 0.09 0.11 0.13 0.15 0.15 0.16 0.17 0.17 0.17 0.17 0.17 0.17 0.18 0.19 0.19 0.20 0.20 0.20 0.20 0.20 0.19 0.19 0.19 0.21 0.21 0.21 0.22 0.23 0.24 0.24 0.24 0.24 0.24 0.24 0.24